Stündliche Wetter Czyste

Heute, 31 Oktober, Samstag

Zeit Temperatur Niederschläge Wind Luftdruck Luftfeuchtigkeit
00:00 +13°C° 0.2 mm 4 m/S 754 mmHg 95%
01:00 +13°C° 0 mm 3 m/S 754 mmHg 96%
02:00 +12°C° 0.4 mm 3 m/S 755 mmHg 97%
03:00 +13°C° 0.4 mm 2 m/S 755 mmHg 97%
04:00 +13°C° 0.4 mm 2 m/S 755 mmHg 97%
05:00 +13°C° 0.2 mm 2 m/S 755 mmHg 97%
06:00 +13°C° 0.2 mm 1 m/S 756 mmHg 97%
07:00 +12°C° 0 mm 1 m/S 756 mmHg 97%
08:00 +13°C° 0 mm 1 m/S 757 mmHg 96%
09:00 +13°C° 0 mm 1 m/S 757 mmHg 94%
10:00 +13°C° 0 mm 1 m/S 757 mmHg 93%
11:00 +13°C° 0 mm 1 m/S 757 mmHg 92%
12:00 +14°C° 0 mm 1 m/S 757 mmHg 90%
13:00 +14°C° 0 mm 2 m/S 757 mmHg 88%
14:00 +14°C° 0 mm 2 m/S 757 mmHg 90%
15:00 +14°C° 0 mm 2 m/S 757 mmHg 91%
16:00 +14°C° 0 mm 2 m/S 756 mmHg 92%
17:00 +13°C° 0 mm 2 m/S 756 mmHg 93%
18:00 +13°C° 0 mm 2 m/S 756 mmHg 94%
19:00 +13°C° 0 mm 2 m/S 756 mmHg 94%
20:00 +12°C° 0 mm 3 m/S 756 mmHg 94%
21:00 +12°C° 0 mm 3 m/S 756 mmHg 94%
22:00 +12°C° 0 mm 3 m/S 756 mmHg 94%
23:00 +11°C° 0 mm 3 m/S 755 mmHg 94%

Morgen, 1 November, Sonntag

Zeit Temperatur Niederschläge Wind Luftdruck Luftfeuchtigkeit
00:00 +11°C° 0 mm 3 m/S 755 mmHg 94%
01:00 +10°C° 0 mm 3 m/S 755 mmHg 95%
02:00 +10°C° 0 mm 3 m/S 754 mmHg 95%
03:00 +10°C° 0 mm 3 m/S 754 mmHg 95%
04:00 +10°C° 0 mm 3 m/S 753 mmHg 95%
05:00 +10°C° 0 mm 3 m/S 753 mmHg 95%
06:00 +10°C° 0 mm 3 m/S 753 mmHg 94%
07:00 +10°C° 0 mm 3 m/S 753 mmHg 94%
08:00 +10°C° 0.1 mm 3 m/S 753 mmHg 91%
09:00 +11°C° 0.1 mm 3 m/S 753 mmHg 88%
10:00 +11°C° 0.1 mm 4 m/S 752 mmHg 86%
11:00 +12°C° 0.1 mm 4 m/S 752 mmHg 84%
12:00 +12°C° 0.1 mm 4 m/S 751 mmHg 81%
13:00 +13°C° 0.1 mm 4 m/S 751 mmHg 79%
14:00 +12°C° 0.4 mm 4 m/S 751 mmHg 83%
15:00 +12°C° 0.4 mm 4 m/S 750 mmHg 87%
16:00 +12°C° 0.4 mm 4 m/S 750 mmHg 91%
17:00 +12°C° 0.5 mm 4 m/S 750 mmHg 91%
18:00 +12°C° 0.5 mm 4 m/S 749 mmHg 91%
19:00 +12°C° 0.5 mm 4 m/S 749 mmHg 91%
20:00 +12°C° 0.3 mm 4 m/S 749 mmHg 91%
21:00 +12°C° 0.3 mm 4 m/S 749 mmHg 92%
22:00 +12°C° 0.3 mm 5 m/S 748 mmHg 92%
23:00 +13°C° 0.1 mm 4 m/S 748 mmHg 92%

übermorgen, 2 November, Montag

Zeit Temperatur Niederschläge Wind Luftdruck Luftfeuchtigkeit
00:00 +13°C° 0.1 mm 4 m/S 748 mmHg 92%
01:00 +13°C° 0.1 mm 4 m/S 748 mmHg 92%
02:00 +13°C° 0 mm 3 m/S 749 mmHg 91%
03:00 +13°C° 0 mm 3 m/S 749 mmHg 91%
04:00 +13°C° 0 mm 3 m/S 749 mmHg 90%
05:00 +12°C° 0.1 mm 3 m/S 749 mmHg 91%
06:00 +12°C° 0.1 mm 3 m/S 750 mmHg 91%
07:00 +12°C° 0.1 mm 3 m/S 750 mmHg 91%
08:00 +12°C° 0.8 mm 3 m/S 750 mmHg 93%
09:00 +13°C° 0.8 mm 3 m/S 750 mmHg 94%
10:00 +13°C° 0.8 mm 3 m/S 750 mmHg 96%
11:00 +14°C° 0 mm 4 m/S 750 mmHg 92%
12:00 +15°C° 0 mm 4 m/S 750 mmHg 89%
13:00 +16°C° 0 mm 5 m/S 750 mmHg 85%
14:00 +17°C° 0 mm 4 m/S 750 mmHg 86%
15:00 +17°C° 0 mm 4 m/S 750 mmHg 87%
16:00 +17°C° 0 mm 3 m/S 750 mmHg 88%
17:00 +17°C° 0 mm 3 m/S 750 mmHg 86%
18:00 +17°C° 0 mm 4 m/S 750 mmHg 84%
19:00 +17°C° 0 mm 4 m/S 751 mmHg 83%
20:00 +17°C° 0 mm 4 m/S 751 mmHg 83%
21:00 +17°C° 0 mm 4 m/S 751 mmHg 84%
22:00 +17°C° 0 mm 4 m/S 751 mmHg 84%
23:00 +15°C° 0 mm 4 m/S 751 mmHg 85%

3 November, Dienstag

Zeit Temperatur Niederschläge Wind Luftdruck Luftfeuchtigkeit
00:00 +15°C° 0 mm 4 m/S 751 mmHg 87%
01:00 +15°C° 0 mm 4 m/S 752 mmHg 88%
02:00 +15°C° 0 mm 4 m/S 752 mmHg 87%
03:00 +15°C° 0 mm 4 m/S 752 mmHg 87%
04:00 +15°C° 0 mm 4 m/S 753 mmHg 86%
05:00 +14°C° 0 mm 4 m/S 753 mmHg 83%
06:00 +13°C° 0 mm 4 m/S 754 mmHg 80%
07:00 +12°C° 0 mm 4 m/S 755 mmHg 77%
08:00 +12°C° 0 mm 4 m/S 755 mmHg 72%
09:00 +13°C° 0 mm 5 m/S 756 mmHg 68%
10:00 +13°C° 0 mm 5 m/S 757 mmHg 63%
11:00 +13°C° 0 mm 5 m/S 757 mmHg 60%
12:00 +13°C° 0 mm 5 m/S 757 mmHg 58%
13:00 +13°C° 0 mm 5 m/S 758 mmHg 56%
14:00 +12°C° 0 mm 4 m/S 758 mmHg 59%
15:00 +12°C° 0 mm 4 m/S 758 mmHg 61%
16:00 +11°C° 0 mm 3 m/S 758 mmHg 64%
17:00 +10°C° 0 mm 3 m/S 758 mmHg 67%
18:00 +10°C° 0 mm 3 m/S 759 mmHg 70%
19:00 +9°C° 0 mm 2 m/S 759 mmHg 74%
20:00 +9°C° 0 mm 2 m/S 759 mmHg 74%
21:00 +8°C° 0 mm 2 m/S 760 mmHg 75%
22:00 +8°C° 0 mm 2 m/S 760 mmHg 76%
23:00 +8°C° 0 mm 2 m/S 760 mmHg 76%

4 November, Mittwoch

Zeit Temperatur Niederschläge Wind Luftdruck Luftfeuchtigkeit
00:00 +8°C° 0 mm 2 m/S 760 mmHg 77%
01:00 +7°C° 0 mm 2 m/S 760 mmHg 78%
02:00 +7°C° 0 mm 2 m/S 760 mmHg 80%
03:00 +6°C° 0 mm 2 m/S 760 mmHg 81%
04:00 +6°C° 0 mm 2 m/S 760 mmHg 83%
05:00 +6°C° 0 mm 2 m/S 761 mmHg 83%
06:00 +5°C° 0 mm 2 m/S 761 mmHg 84%
07:00 +4°C° 0 mm 3 m/S 761 mmHg 85%
08:00 +5°C° 0 mm 3 m/S 761 mmHg 79%
09:00 +7°C° 0 mm 3 m/S 762 mmHg 74%
10:00 +7°C° 0 mm 4 m/S 762 mmHg 68%
11:00 +9°C° 0 mm 3 m/S 762 mmHg 66%
12:00 +9°C° 0 mm 3 m/S 762 mmHg 63%
13:00 +10°C° 0 mm 3 m/S 763 mmHg 61%
14:00 +9°C° 0 mm 2 m/S 763 mmHg 64%
15:00 +9°C° 0 mm 2 m/S 763 mmHg 67%
16:00 +9°C° 0 mm 1 m/S 763 mmHg 70%
17:00 +9°C° 0 mm 1 m/S 763 mmHg 73%
18:00 +8°C° 0 mm 1 m/S 764 mmHg 76%
19:00 +7°C° 0 mm 1 m/S 764 mmHg 79%
20:00 +7°C° 0 mm 1 m/S 765 mmHg 80%
21:00 +7°C° 0 mm 1 m/S 765 mmHg 82%
22:00 +6°C° 0 mm 1 m/S 765 mmHg 83%
23:00 +6°C° 0 mm 1 m/S 765 mmHg 85%

5 November, Donnerstag

Zeit Temperatur Niederschläge Wind Luftdruck Luftfeuchtigkeit
00:00 +6°C° 0 mm 1 m/S 766 mmHg 86%
01:00 +5°C° 0 mm 1 m/S 766 mmHg 87%
02:00 +5°C° 0 mm 1 m/S 766 mmHg 89%
03:00 +5°C° 0 mm 1 m/S 766 mmHg 90%
04:00 +4°C° 0 mm 1 m/S 766 mmHg 91%
05:00 +4°C° 0 mm 1 m/S 767 mmHg 92%
06:00 +4°C° 0 mm 1 m/S 767 mmHg 92%
07:00 +4°C° 0 mm 1 m/S 767 mmHg 93%
08:00 +4°C° 0 mm 2 m/S 767 mmHg 88%
09:00 +5°C° 0 mm 2 m/S 768 mmHg 84%
10:00 +7°C° 0 mm 2 m/S 768 mmHg 79%
11:00 +7°C° 0 mm 2 m/S 768 mmHg 76%
12:00 +8°C° 0 mm 2 m/S 768 mmHg 73%
13:00 +9°C° 0 mm 2 m/S 768 mmHg 71%
14:00 +9°C° 0 mm 2 m/S 768 mmHg 74%
15:00 +8°C° 0 mm 2 m/S 768 mmHg 77%
16:00 +8°C° 0 mm 2 m/S 768 mmHg 81%
17:00 +7°C° 0 mm 2 m/S 768 mmHg 84%
18:00 +6°C° 0 mm 2 m/S 768 mmHg 87%
19:00 +6°C° 0 mm 2 m/S 768 mmHg 90%
20:00 +5°C° 0 mm 2 m/S 769 mmHg 92%
21:00 +5°C° 0 mm 2 m/S 769 mmHg 93%
22:00 +5°C° 0 mm 2 m/S 769 mmHg 94%
23:00 +4°C° 0 mm 2 m/S 769 mmHg 94%
Mehr zeigen

Wir brauchen deine Erlaubnis

Meteoprog und unser Service Anbieter werden persönliche Daten aufbewahren, so wie Cookies, Geräte Bezeichnung oder ähnliche Technologien von deinem Gerät und Prozess, so wie Persönliche Daten Inhalte und Werbungen, genauso wie social Media und den Verkehr zu analysieren.

  • Aufbewahrung und/oder Zugang zu deiner Geräte Informationen.

    Cookies, Geräte Bezeichnung oder andere Informationen, können aufbewahrt oder Zugang zu deinem Gerät erhalten, für den Grund, der oben angegeben wird.

  • Personalisierte Werbung und Inhalte, Messungen, Einblick in das Publikum und Produkt Entwicklung.

    Werbungen und Inhalte können personalisiert werden, basierend auf ein Profil. Mehr Daten können besser personalisierte Werbungen und Inhalte hinzufügen. Werbung und Inhalte können gezeigt und gemessen werden. Einblicke über das Publikum, welche die Werbung gesehen haben und den Inhalt, können abgeleitet werden. So wie Daten können genutzt werden, um es zu verbessern oder die Benutzer Erfahrung zu verbessern das System und die Software.

Wenn du “Ich stimme zu” klickst, erlaubst du uns, die Cookies zu benutzen die Geräte Bezeichnung, den Web oder ähnliche Technologien zu benutzen. Deine Settings, können in deinem Gerät bei deinem Browser geändert werden.

Für den bestimmten Zweck, berechtigten Interessen beruhen darauf, mehr als auf den Inhalt. Du kannst mehr darüber in unseren Privaten und Cookie Politik lesen.